XML Sitemap

This is a XML Sitemap which is supposed to be processed by search engines which follow the XML Sitemap standard like Ask.com, Bing, Google and Yahoo.
It was generated using the WordPress content management system and the Google Sitemap Generator Plugin by Arne Brachhold.
You can find more information about XML sitemaps on sitemaps.org and Google's list of sitemap programs.

URLPriorityChange frequencyLast modified (GMT)
https://svolavacky.cz/listing/mini-countryman-2016-2018/60%Daily2018-09-29 14:36
https://svolavacky.cz/listing/dodge-ram-2012-2017/60%Daily2018-09-29 14:15
https://svolavacky.cz/listing/volkswagen-passat-2018-3/60%Daily2018-09-29 13:28
https://svolavacky.cz/listing/mercedes-benz-gls-2016-2/60%Daily2018-09-29 13:05
https://svolavacky.cz/listing/mercedes-benz-gle-2015-2016/60%Daily2018-09-29 12:53
https://svolavacky.cz/listing/mercedes-benz-gl-2010-2016/60%Daily2018-09-29 12:38
https://svolavacky.cz/listing/porsche-918-spyder-2013-2015/60%Daily2018-09-28 19:20
https://svolavacky.cz/listing/porsche-cayenne-2016-2018/60%Daily2018-09-28 19:01
https://svolavacky.cz/listing/toyota-proace-2016-2017/60%Daily2018-09-28 18:38
https://svolavacky.cz/listing/mercedes-benz-e-class-2018-2/60%Daily2018-09-28 15:34
https://svolavacky.cz/listing/mercedes-benz-c-class-2018-2/60%Daily2018-09-28 15:19
https://svolavacky.cz/listing/porsche-panamera-2015-2018/60%Daily2018-09-28 03:48
https://svolavacky.cz/listing/mitsubishi-asx-my-2011-2018/60%Daily2018-09-28 03:27
https://svolavacky.cz/listing/opel-grandland-x-my-2018/60%Daily2018-09-23 19:50
https://svolavacky.cz/listing/mercedes-benz-c-class-2016-2017-2/60%Daily2018-09-23 19:38
https://svolavacky.cz/listing/opel-insignia-b-my-2018/60%Daily2018-09-23 18:41
https://svolavacky.cz/listing/citroen-ds7-crossback-2018/60%Daily2018-09-23 18:06
https://svolavacky.cz/listing/citroen-c4-picasso-2018/60%Daily2018-09-23 17:38
https://svolavacky.cz/listing/peugeot-traveller-2016-2018/60%Daily2018-09-23 17:18
https://svolavacky.cz/listing/peugeot-expert-2016-2018/60%Daily2018-09-23 17:20
https://svolavacky.cz/listing/citroen-spacetourer-2016-2018/60%Daily2018-09-23 17:27
https://svolavacky.cz/listing/citroen-jumpy-2016-2018/60%Daily2018-09-23 17:28
https://svolavacky.cz/listing/citroen-c3-2018/60%Daily2018-09-23 14:01
https://svolavacky.cz/listing/chrysler-aspen-2008/60%Daily2018-09-23 13:22
https://svolavacky.cz/listing/chrysler-300-2008/60%Daily2018-09-23 13:13
https://svolavacky.cz/listing/mercedes-benz-e-class-cabriolet-2017/60%Daily2018-09-23 10:15
https://svolavacky.cz/listing/opel-zafira-2017-2018/60%Daily2018-09-23 09:50
https://svolavacky.cz/listing/opel-cascada-2017-2018/60%Daily2018-09-23 09:41
https://svolavacky.cz/listing/ford-s-max-2014-2018/60%Daily2018-09-23 09:00
https://svolavacky.cz/listing/ford-galaxy-2014-2018-2/60%Daily2018-09-23 08:53
https://svolavacky.cz/listing/ford-mondeo-2014-2018-2/60%Daily2018-09-23 08:44
https://svolavacky.cz/listing/ford-edge-2014-2018/60%Daily2018-09-23 08:32
https://svolavacky.cz/listing/peugeot-5008-2016-2018/60%Daily2018-09-23 18:19
https://svolavacky.cz/listing/peugeot-3008-2016-2018/60%Daily2018-09-23 18:21
https://svolavacky.cz/listing/peugeot-308-2017-2018/60%Daily2018-09-23 18:35
https://svolavacky.cz/listing/citroen-c4-picasso-2016-2018/60%Daily2018-09-23 05:42
https://svolavacky.cz/listing/citroen-jumpy-4-2015-2017/60%Daily2018-09-23 05:08
https://svolavacky.cz/listing/lexus-lc500h-2016-2018/60%Daily2018-09-23 04:26
https://svolavacky.cz/listing/volkswagen-tiguan-allspace-2018/60%Daily2018-09-15 10:15
https://svolavacky.cz/listing/volkswagen-polo-2015-2017/60%Daily2018-09-15 09:58
https://svolavacky.cz/listing/volkswagen-up-2015-2017/60%Daily2018-09-15 09:43
https://svolavacky.cz/listing/mercedes-benz-sprinter-2017-2018-2/60%Daily2018-09-15 09:30
https://svolavacky.cz/listing/land-rover-range-rover-phev-2017-2018/60%Daily2018-09-15 09:03
https://svolavacky.cz/listing/mazda-cx-3-2015-2017/60%Daily2018-09-15 08:18
https://svolavacky.cz/listing/mazda-2-2014-2017/60%Daily2018-09-15 08:00
https://svolavacky.cz/listing/mazda-mx-5-2014-2017/60%Daily2018-09-15 07:49
https://svolavacky.cz/listing/opel-insignia-b-2017-2018/60%Daily2018-09-14 06:30
https://svolavacky.cz/listing/peugeot-expert-4-2016-2017/60%Daily2018-09-14 05:12
https://svolavacky.cz/listing/toyota-c-hr-hybrid-2016-2018/60%Daily2018-09-14 04:36
https://svolavacky.cz/listing/toyota-prius-2015-2018/60%Daily2018-09-14 04:14
https://svolavacky.cz/listing/toyota-prius-plug-in-hybrid-2016-2018/60%Daily2018-09-14 03:57
https://svolavacky.cz/listing/volkswagen-passat-2006-2008/60%Daily2018-09-09 07:41
https://svolavacky.cz/listing/volkswagen-crafter-2016-2018/60%Daily2018-09-09 06:45
https://svolavacky.cz/listing/nissan-juke-2017/60%Daily2018-09-09 06:17
https://svolavacky.cz/listing/nissan-nv200-2017/60%Daily2018-09-09 05:57
https://svolavacky.cz/listing/volkswagen-tiguan-allspace-2017-2018-2/60%Daily2018-09-09 05:01
https://svolavacky.cz/listing/mercedes-benz-vito-v-class-2013-2018/60%Daily2018-09-07 04:58
https://svolavacky.cz/listing/volkswagen-polo-2016-2018/60%Daily2018-09-07 04:56